Time,TemperatureF,DewpointF,PressureIn,WindDirection,WindDirectionDegrees,WindSpeedMPH,WindSpeedGustMPH,Humidity,HourlyPrecipIn,Conditions,Clouds,dailyrainin,SoftwareType,DateUTC
2013-05-26 00:13:00,41.0,38.0,-100.00,NW,315,9.0,14.0,89,-99.99,,,-99.99,,2013-05-26 04:13:00,
2013-05-26 01:12:00,40.0,37.0,-100.00,NW,310,9.0,17.0,88,-99.99,,,-99.99,,2013-05-26 05:12:00,
2013-05-26 01:22:00,40.0,37.0,-100.00,NW,310,8.0,17.0,87,-99.99,,,-99.99,,2013-05-26 05:22:00,
2013-05-26 01:32:00,40.0,36.0,-100.00,NW,305,7.0,14.0,86,-99.99,,,-99.99,,2013-05-26 05:32:00,
2013-05-26 01:42:00,40.0,36.0,-100.00,NW,305,7.0,14.0,86,-99.99,,,-99.99,,2013-05-26 05:42:00,
2013-05-26 01:52:00,40.0,36.0,-100.00,NW,310,6.0,12.0,86,-99.99,,,-99.99,,2013-05-26 05:52:00,
2013-05-26 02:01:00,40.0,36.0,-100.00,NW,310,6.0,12.0,86,-99.99,,,-99.99,,2013-05-26 06:01:00,
2013-05-26 02:12:00,40.0,36.0,-100.00,NW,310,5.0,10.0,86,-99.99,,,-99.99,,2013-05-26 06:12:00,
2013-05-26 02:22:00,40.0,36.0,-100.00,NW,305,5.0,10.0,86,-99.99,,,-99.99,,2013-05-26 06:22:00,
2013-05-26 02:32:00,40.0,36.0,-100.00,WNW,295,6.0,13.0,86,-99.99,,,-99.99,,2013-05-26 06:32:00,
2013-05-26 02:42:00,40.0,36.0,-100.00,WNW,295,6.0,13.0,86,-99.99,,,-99.99,,2013-05-26 06:42:00,
2013-05-26 02:52:00,40.0,36.0,-100.00,NW,305,6.0,13.0,86,-99.99,,,-99.99,,2013-05-26 06:52:00,
2013-05-26 03:02:00,40.0,36.0,-100.00,NW,305,5.0,13.0,87,-99.99,,,-99.99,,2013-05-26 07:02:00,
2013-05-26 03:11:00,39.0,36.0,-100.00,NW,305,6.0,14.0,88,-99.99,,,-99.99,,2013-05-26 07:11:00,
2013-05-26 03:22:00,39.0,36.0,-100.00,NW,305,6.0,14.0,88,-99.99,,,-99.99,,2013-05-26 07:22:00,
2013-05-26 03:32:00,39.0,36.0,-100.00,WNW,300,5.0,12.0,89,-99.99,,,-99.99,,2013-05-26 07:32:00,
2013-05-26 03:42:00,39.0,36.0,-100.00,WNW,300,5.0,12.0,89,-99.99,,,-99.99,,2013-05-26 07:42:00,
2013-05-26 03:52:00,39.0,36.0,-100.00,NW,305,5.0,10.0,89,-99.99,,,-99.99,,2013-05-26 07:52:00,
2013-05-26 04:01:00,39.0,36.0,-100.00,WNW,300,5.0,9.0,89,-99.99,,,-99.99,,2013-05-26 08:01:00,
2013-05-26 04:12:00,39.0,36.0,-100.00,WNW,290,5.0,12.0,90,-99.99,,,-99.99,,2013-05-26 08:12:00,
2013-05-26 04:21:00,39.0,36.0,-100.00,NW,310,5.0,10.0,90,-99.99,,,-99.99,,2013-05-26 08:21:00,
2013-05-26 04:32:00,39.0,37.0,-100.00,West,280,2.0,12.0,91,-99.99,,,-99.99,,2013-05-26 08:32:00,
2013-05-26 04:42:00,39.0,37.0,-100.00,West,280,2.0,12.0,91,-99.99,,,-99.99,,2013-05-26 08:42:00,
2013-05-26 06:03:00,40.0,38.0,-100.00,NW,310,5.0,9.0,93,-99.99,,,-99.99,,2013-05-26 10:03:00,
2013-05-26 06:12:00,40.0,38.0,-100.00,NW,305,3.0,8.0,92,-99.99,,,-99.99,,2013-05-26 10:12:00,
2013-05-26 06:23:00,40.0,38.0,-100.00,NW,315,5.0,13.0,92,-99.99,,,-99.99,,2013-05-26 10:23:00,
2013-05-26 06:33:00,40.0,38.0,-100.00,NW,310,5.0,9.0,92,-99.99,,,-99.99,,2013-05-26 10:33:00,
2013-05-26 06:42:00,40.0,38.0,-100.00,WNW,288,7.0,13.0,92,-99.99,,,-99.99,,2013-05-26 10:42:00,
2013-05-26 06:52:00,40.0,38.0,-100.00,WNW,288,7.0,13.0,92,-99.99,,,-99.99,,2013-05-26 10:52:00,
2013-05-26 07:03:00,41.0,38.0,-100.00,WNW,300,7.0,17.0,90,-99.99,,,-99.99,,2013-05-26 11:03:00,
2013-05-26 07:11:00,41.0,38.0,-100.00,NW,305,7.0,13.0,90,-99.99,,,-99.99,,2013-05-26 11:11:00,
2013-05-26 07:22:00,42.0,38.0,-100.00,NW,315,7.0,18.0,88,-99.99,,,-99.99,,2013-05-26 11:22:00,
2013-05-26 07:32:00,42.0,38.0,-100.00,NW,310,7.0,16.0,86,-99.99,,,-99.99,,2013-05-26 11:32:00,
2013-05-26 07:42:00,42.0,38.0,-100.00,NW,310,6.0,13.0,85,-99.99,,,-99.99,,2013-05-26 11:42:00,
2013-05-26 07:52:00,42.0,38.0,-100.00,NW,310,8.0,15.0,83,-99.99,,,-99.99,,2013-05-26 11:52:00,
2013-05-26 08:02:00,43.0,38.0,-100.00,NW,310,5.0,12.0,82,-99.99,,,-99.99,,2013-05-26 12:02:00,
2013-05-26 08:12:00,43.0,38.0,-100.00,NW,305,5.0,14.0,82,-99.99,,,-99.99,,2013-05-26 12:12:00,
2013-05-26 08:22:00,44.0,38.0,-100.00,NW,320,5.0,20.0,80,-99.99,,,-99.99,,2013-05-26 12:22:00,
2013-05-26 08:32:00,44.0,38.0,-100.00,NW,310,7.0,14.0,79,-99.99,,,-99.99,,2013-05-26 12:32:00,
2013-05-26 08:42:00,44.0,38.0,-100.00,NW,310,7.0,14.0,79,-99.99,,,-99.99,,2013-05-26 12:42:00,
2013-05-26 08:52:00,44.0,38.0,-100.00,NW,315,5.0,12.0,79,-99.99,,,-99.99,,2013-05-26 12:52:00,
2013-05-26 09:02:00,44.0,38.0,-100.00,NW,315,5.0,12.0,79,-99.99,,,-99.99,,2013-05-26 13:02:00,
2013-05-26 09:11:00,45.0,39.0,-100.00,NW,305,3.0,9.0,80,-99.99,,,-99.99,,2013-05-26 13:11:00,
2013-05-26 09:22:00,46.0,40.0,-100.00,NW,320,7.0,13.0,77,-99.99,,,-99.99,,2013-05-26 13:22:00,
2013-05-26 09:32:00,47.0,39.0,-100.00,NNW,345,10.0,15.0,73,-99.99,,,-99.99,,2013-05-26 13:32:00,
2013-05-26 09:42:00,47.0,39.0,-100.00,NW,305,7.0,18.0,72,-99.99,,,-99.99,,2013-05-26 13:42:00,
2013-05-26 09:52:00,48.0,39.0,-100.00,NNW,335,6.0,12.0,71,-99.99,,,-99.99,,2013-05-26 13:52:00,
2013-05-26 10:02:00,49.0,39.0,-100.00,NNW,330,5.0,20.0,69,-99.99,,,-99.99,,2013-05-26 14:02:00,
2013-05-26 10:11:00,49.0,40.0,-100.00,WNW,295,5.0,15.0,69,-99.99,,,-99.99,,2013-05-26 14:11:00,
2013-05-26 10:22:00,51.0,40.0,-100.00,NW,310,7.0,17.0,66,-99.99,,,-99.99,,2013-05-26 14:22:00,
2013-05-26 10:32:00,50.0,39.0,-100.00,NW,310,8.0,15.0,65,-99.99,,,-99.99,,2013-05-26 14:32:00,
2013-05-26 10:42:00,49.0,37.0,-100.00,NW,310,13.0,24.0,62,-99.99,,,-99.99,,2013-05-26 14:42:00,
2013-05-26 10:52:00,50.0,36.0,-100.00,NW,310,10.0,28.0,59,-99.99,,,-99.99,,2013-05-26 14:52:00,
2013-05-26 11:02:00,51.0,37.0,-100.00,NW,310,10.0,23.0,59,-99.99,,,-99.99,,2013-05-26 15:02:00,
2013-05-26 11:12:00,50.0,36.0,-100.00,NW,310,12.0,22.0,58,-99.99,,,-99.99,,2013-05-26 15:12:00,
2013-05-26 11:22:00,51.0,38.0,-100.00,NW,320,7.0,22.0,60,-99.99,,,-99.99,,2013-05-26 15:22:00,
2013-05-26 11:33:00,52.0,38.0,-100.00,NW,310,6.0,13.0,58,-99.99,,,-99.99,,2013-05-26 15:33:00,
2013-05-26 11:43:00,52.0,37.0,-100.00,NW,315,10.0,20.0,57,-99.99,,,-99.99,,2013-05-26 15:43:00,
2013-05-26 11:53:00,53.0,38.0,-100.00,NW,310,9.0,18.0,57,-99.99,,,-99.99,,2013-05-26 15:53:00,
2013-05-26 12:03:00,53.0,37.0,-100.00,NNW,345,13.0,23.0,55,-99.99,,,-99.99,,2013-05-26 16:03:00,
2013-05-26 12:12:00,54.0,38.0,-100.00,NW,305,12.0,17.0,54,-99.99,,,-99.99,,2013-05-26 16:12:00,
2013-05-26 12:23:00,54.0,37.0,-100.00,NW,315,10.0,18.0,53,-99.99,,,-99.99,,2013-05-26 16:23:00,
2013-05-26 12:33:00,54.0,38.0,-100.00,NW,305,10.0,18.0,54,-99.99,,,-99.99,,2013-05-26 16:33:00,
2013-05-26 12:42:00,54.0,38.0,-100.00,NW,305,10.0,18.0,54,-99.99,,,-99.99,,2013-05-26 16:42:00,
2013-05-26 12:52:00,54.0,38.0,-100.00,WNW,300,10.0,20.0,54,-99.99,,,-99.99,,2013-05-26 16:52:00,
2013-05-26 13:02:00,54.0,38.0,-100.00,NW,305,9.0,17.0,55,-99.99,,,-99.99,,2013-05-26 17:02:00,
2013-05-26 13:11:00,54.0,38.0,-100.00,NW,310,8.0,18.0,55,-99.99,,,-99.99,,2013-05-26 17:11:00,
2013-05-26 13:23:00,54.0,38.0,-100.00,NW,315,7.0,14.0,55,-99.99,,,-99.99,,2013-05-26 17:23:00,
2013-05-26 13:32:00,54.0,38.0,-100.00,NW,310,9.0,20.0,54,-99.99,,,-99.99,,2013-05-26 17:32:00,
2013-05-26 13:42:00,54.0,38.0,-100.00,NW,315,6.0,20.0,55,-99.99,,,-99.99,,2013-05-26 17:42:00,
2013-05-26 14:01:00,54.0,37.0,-100.00,WNW,300,9.0,20.0,52,-99.99,,,-99.99,,2013-05-26 18:01:00,
2013-05-26 14:12:00,54.0,37.0,-100.00,NW,305,14.0,24.0,53,-99.99,,,-99.99,,2013-05-26 18:12:00,
2013-05-26 14:22:00,54.0,38.0,-100.00,NW,305,10.0,21.0,54,-99.99,,,-99.99,,2013-05-26 18:22:00,
2013-05-26 14:32:00,56.0,38.0,-100.00,NW,310,12.0,21.0,51,-99.99,,,-99.99,,2013-05-26 18:32:00,
2013-05-26 14:42:00,56.0,36.0,-100.00,NW,305,12.0,23.0,47,-99.99,,,-99.99,,2013-05-26 18:42:00,
2013-05-26 14:52:00,56.0,37.0,-100.00,West,280,8.0,27.0,48,-99.99,,,-99.99,,2013-05-26 18:52:00,
2013-05-26 15:01:00,56.0,37.0,-100.00,NW,305,8.0,20.0,48,-99.99,,,-99.99,,2013-05-26 19:01:00,
2013-05-26 15:11:00,55.0,36.0,-100.00,NW,305,15.0,29.0,48,-99.99,,,-99.99,,2013-05-26 19:11:00,
2013-05-26 15:22:00,56.0,35.0,-100.00,NW,305,10.0,21.0,45,-99.99,,,-99.99,,2013-05-26 19:22:00,
2013-05-26 15:32:00,56.0,36.0,-100.00,NW,310,9.0,20.0,47,-99.99,,,-99.99,,2013-05-26 19:32:00,
2013-05-26 15:42:00,55.0,36.0,-100.00,NNW,335,15.0,28.0,48,-99.99,,,-99.99,,2013-05-26 19:42:00,
2013-05-26 15:52:00,56.0,37.0,-100.00,NW,310,7.0,16.0,48,-99.99,,,-99.99,,2013-05-26 19:52:00,
2013-05-26 16:02:00,56.0,36.0,-100.00,NW,305,10.0,29.0,46,-99.99,,,-99.99,,2013-05-26 20:02:00,
2013-05-26 16:11:00,56.0,36.0,-100.00,NW,315,12.0,27.0,47,-99.99,,,-99.99,,2013-05-26 20:11:00,
2013-05-26 16:22:00,56.0,37.0,-100.00,NW,315,9.0,25.0,48,-99.99,,,-99.99,,2013-05-26 20:22:00,
2013-05-26 16:32:00,57.0,37.0,-100.00,NW,305,7.0,18.0,47,-99.99,,,-99.99,,2013-05-26 20:32:00,
2013-05-26 16:42:00,56.0,36.0,-100.00,NW,310,15.0,27.0,46,-99.99,,,-99.99,,2013-05-26 20:42:00,
2013-05-26 16:52:00,58.0,36.0,-100.00,NNW,340,10.0,27.0,44,-99.99,,,-99.99,,2013-05-26 20:52:00,
2013-05-26 17:02:00,58.0,36.0,-100.00,NNW,340,10.0,27.0,44,-99.99,,,-99.99,,2013-05-26 21:02:00,
2013-05-26 17:12:00,58.0,37.0,-100.00,NW,315,9.0,21.0,46,-99.99,,,-99.99,,2013-05-26 21:12:00,
2013-05-26 17:22:00,55.0,35.0,-100.00,NW,310,16.0,29.0,46,-99.99,,,-99.99,,2013-05-26 21:22:00,
2013-05-26 17:33:00,56.0,35.0,-100.00,NW,305,10.0,20.0,46,-99.99,,,-99.99,,2013-05-26 21:33:00,
2013-05-26 17:43:00,55.0,36.0,-100.00,NW,320,9.0,21.0,48,-99.99,,,-99.99,,2013-05-26 21:43:00,
2013-05-26 17:53:00,55.0,35.0,-100.00,NW,305,12.0,22.0,47,-99.99,,,-99.99,,2013-05-26 21:53:00,
2013-05-26 18:03:00,55.0,35.0,-100.00,NW,305,12.0,22.0,47,-99.99,,,-99.99,,2013-05-26 22:03:00,
2013-05-26 18:12:00,55.0,36.0,-100.00,NW,315,10.0,22.0,49,-99.99,,,-99.99,,2013-05-26 22:12:00,
2013-05-26 18:23:00,55.0,36.0,-100.00,NW,315,9.0,23.0,48,-99.99,,,-99.99,,2013-05-26 22:23:00,
2013-05-26 18:33:00,55.0,36.0,-100.00,NW,310,12.0,23.0,50,-99.99,,,-99.99,,2013-05-26 22:33:00,
2013-05-26 18:42:00,55.0,36.0,-100.00,NW,310,12.0,23.0,50,-99.99,,,-99.99,,2013-05-26 22:42:00,
2013-05-26 18:53:00,55.0,37.0,-100.00,NW,305,9.0,22.0,50,-99.99,,,-99.99,,2013-05-26 22:53:00,
2013-05-26 19:02:00,55.0,36.0,-100.00,NW,305,12.0,23.0,49,-99.99,,,-99.99,,2013-05-26 23:02:00,
2013-05-26 19:12:00,54.0,37.0,-100.00,NW,315,9.0,22.0,52,-99.99,,,-99.99,,2013-05-26 23:12:00,
2013-05-26 19:22:00,54.0,36.0,-100.00,WNW,300,13.0,23.0,51,-99.99,,,-99.99,,2013-05-26 23:22:00,
2013-05-26 19:32:00,54.0,36.0,-100.00,NW,320,14.0,21.0,51,-99.99,,,-99.99,,2013-05-26 23:32:00,
2013-05-26 19:40:00,53.0,37.0,-100.00,NW,320,10.0,22.0,55,-99.99,,,-99.99,,2013-05-26 23:40:00,
2013-05-26 19:43:00,53.0,37.0,-100.00,NW,310,10.0,17.0,53,-99.99,,,-99.99,,2013-05-26 23:43:00,
2013-05-26 19:52:00,54.0,36.0,-100.00,NW,310,15.0,23.0,52,-99.99,,,-99.99,,2013-05-26 23:52:00,
2013-05-26 20:02:00,54.0,37.0,-100.00,NW,315,9.0,17.0,53,-99.99,,,-99.99,,2013-05-27 00:02:00,
2013-05-26 20:11:00,53.0,37.0,-100.00,NNW,335,8.0,15.0,55,-99.99,,,-99.99,,2013-05-27 00:11:00,
2013-05-26 20:22:00,53.0,37.0,-100.00,NW,320,10.0,22.0,55,-99.99,,,-99.99,,2013-05-27 00:22:00,
2013-05-26 20:32:00,53.0,37.0,-100.00,NW,320,10.0,22.0,55,-99.99,,,-99.99,,2013-05-27 00:32:00,
2013-05-26 20:52:00,52.0,37.0,-100.00,NW,320,7.0,14.0,57,-99.99,,,-99.99,,2013-05-27 00:52:00,
2013-05-26 21:01:00,51.0,37.0,-100.00,NW,315,7.0,15.0,58,-99.99,,,-99.99,,2013-05-27 01:01:00,
2013-05-26 21:11:00,51.0,37.0,-100.00,NW,305,8.0,18.0,58,-99.99,,,-99.99,,2013-05-27 01:11:00,
2013-05-26 21:22:00,51.0,37.0,-100.00,NW,305,8.0,18.0,59,-99.99,,,-99.99,,2013-05-27 01:22:00,
2013-05-26 21:32:00,51.0,38.0,-100.00,WNW,300,7.0,13.0,61,-99.99,,,-99.99,,2013-05-27 01:32:00,
2013-05-26 21:42:00,50.0,37.0,-100.00,NW,305,7.0,16.0,61,-99.99,,,-99.99,,2013-05-27 01:42:00,
2013-05-26 21:52:00,50.0,38.0,-100.00,NW,315,5.0,10.0,64,-99.99,,,-99.99,,2013-05-27 01:52:00,
2013-05-26 22:02:00,49.0,38.0,-100.00,WNW,300,3.0,9.0,66,-99.99,,,-99.99,,2013-05-27 02:02:00,
2013-05-26 22:11:00,48.0,39.0,-100.00,NW,305,2.0,9.0,69,-99.99,,,-99.99,,2013-05-27 02:11:00,
2013-05-26 22:22:00,47.0,39.0,-100.00,NW,305,2.0,8.0,71,-99.99,,,-99.99,,2013-05-27 02:22:00,
2013-05-26 22:32:00,47.0,39.0,-100.00,WNW,300,3.0,7.0,72,-99.99,,,-99.99,,2013-05-27 02:32:00,
2013-05-26 22:42:00,47.0,38.0,-100.00,NW,315,3.0,8.0,72,-99.99,,,-99.99,,2013-05-27 02:42:00,
2013-05-26 22:52:00,47.0,38.0,-100.00,WNW,295,2.0,6.0,73,-99.99,,,-99.99,,2013-05-27 02:52:00,
2013-05-26 23:02:00,46.0,38.0,-100.00,NW,310,3.0,7.0,73,-99.99,,,-99.99,,2013-05-27 03:02:00,
2013-05-26 23:11:00,46.0,38.0,-100.00,WNW,295,2.0,6.0,74,-99.99,,,-99.99,,2013-05-27 03:11:00,
2013-05-26 23:21:00,45.0,37.0,-100.00,NW,305,2.0,6.0,74,-99.99,,,-99.99,,2013-05-27 03:21:00,
2013-05-26 23:33:00,45.0,38.0,-100.00,WNW,300,2.0,10.0,75,-99.99,,,-99.99,,2013-05-27 03:33:00,
2013-05-26 23:43:00,45.0,38.0,-100.00,West,275,2.0,7.0,75,-99.99,,,-99.99,,2013-05-27 03:43:00,
2013-05-26 23:53:00,45.0,38.0,-100.00,WSW,250,2.0,5.0,75,-99.99,,,-99.99,,2013-05-27 03:53:00,